IW5EFR Vecchia di Pontedera IT current weather conditions

sailwx.info

Wind from 143

Air temperature 11.7° C
Dewpoint 9.2° C

Last reported at 2015-Mar-04 11:47 UTC.
Time now 2015-Mar-04 12:51 UTC

Location: N 43°37' E 010°38'.
View on Google Maps.

See reports from other nearby stations

  
Tides and Currents Weather Stations Pressure Air Temp Water Temp Dewpoint Dewpoint Depression Visibility Wind Speed Wind Dir Waves Ship Positions
date/time (UTC)wind fromknots sea level pressurealtimeterstation pressurevisibilityair tempwater tempwave heightnotes
2015-Mar-04 11:47 143 11.7
2015-Mar-04 11:42 143 11.7
2015-Mar-04 11:37 143 11.7
2015-Mar-04 11:32 143 0 11.7
2015-Mar-04 11:27 143 11.7
2015-Mar-04 11:22 143 11.7
2015-Mar-04 11:17 143 11.1
2015-Mar-04 11:12 143 11.1
2015-Mar-04 11:07 143 11.1
2015-Mar-04 11:02 143 11.1
2015-Mar-04 10:57 143 11.1
2015-Mar-04 10:52 143 0 gusting 2 11.1
2015-Mar-04 10:47 143 11.1
2015-Mar-04 10:42 143 11.1
2015-Mar-04 10:37 143 0 gusting 2 11.1
2015-Mar-04 10:32 143 0 gusting 2 11.1
2015-Mar-04 10:27 143 0 gusting 2 11.1
2015-Mar-04 10:22 143 10.6
2015-Mar-04 10:17 143 10.6
2015-Mar-04 10:12 143 10.6
2015-Mar-04 10:07 143 10.6
2015-Mar-04 10:02 143 10.6
2015-Mar-04 09:57 143 0 gusting 4 10.6
2015-Mar-04 09:52 143 10.0
2015-Mar-04 09:47 143 0 gusting 4 10.0
2015-Mar-04 09:42 143 0 gusting 3 10.0
2015-Mar-04 09:37 142 1 gusting 3 10.0
2015-Mar-04 09:32 142 1 gusting 3 10.0
2015-Mar-04 09:27 140 3 gusting 3 10.0
2015-Mar-04 09:22 140 1 gusting 5 10.0
2015-Mar-04 09:17 140 10.0
2015-Mar-04 09:12 140 1 gusting 2 10.0
2015-Mar-04 09:07 140 0 gusting 2 10.0
2015-Mar-04 09:02 142 3 gusting 2 10.0
2015-Mar-04 08:57 142 1 gusting 3 10.0
2015-Mar-04 08:52 142 0 gusting 4 10.0
2015-Mar-04 08:47 142 10.0
2015-Mar-04 08:42 142 0 gusting 6 10.0
2015-Mar-04 08:37 142 2 gusting 6 10.0
2015-Mar-04 08:32 140 0 gusting 7 10.0
2015-Mar-04 08:27 140 1 gusting 7 10.0
2015-Mar-04 08:22 142 2 gusting 6 10.0
2015-Mar-04 08:17 146 6 gusting 6 10.0
2015-Mar-04 08:12 131 5 gusting 7 10.0
2015-Mar-04 08:07 132 5 gusting 7 10.0
2015-Mar-04 08:02 148 6 gusting 7 10.0
2015-Mar-04 07:57 161 2 gusting 8 10.0
2015-Mar-04 07:52 141 3 gusting 7 10.0
2015-Mar-04 07:47 132 6 gusting 7 9.4
2015-Mar-04 07:42 150 4 gusting 7 9.4
2015-Mar-04 07:37 142 6 gusting 7 9.4
2015-Mar-04 07:32 132 4 gusting 7 9.4
2015-Mar-04 07:27 158 2 gusting 7 9.4
2015-Mar-04 07:22 145 5 gusting 6 9.4
2015-Mar-04 07:17 144 4 gusting 6 8.9
2015-Mar-04 07:12 153 4 gusting 7 8.9
2015-Mar-04 07:07 157 5 gusting 7 8.9
2015-Mar-04 07:02 165 4 gusting 7 8.9
2015-Mar-04 06:57 156 6 gusting 7 8.9
2015-Mar-04 06:52 156 5 gusting 6 8.9
2015-Mar-04 06:47 159 5 gusting 6 8.9
2015-Mar-04 06:42 153 3 gusting 7 8.3
2015-Mar-04 06:37 162 4 gusting 7 8.3
2015-Mar-04 06:32 161 3 gusting 7 8.3
2015-Mar-04 06:27 159 3 gusting 7 8.3
2015-Mar-04 06:22 179 3 gusting 6 8.3
2015-Mar-04 06:17 148 4 gusting 6 8.3
2015-Mar-04 06:12 162 1 gusting 6 8.3
2015-Mar-04 06:07 155 5 gusting 6 8.3
2015-Mar-04 06:02 148 4 gusting 6 8.3
2015-Mar-04 05:57 162 4 gusting 4 8.3
2015-Mar-04 05:52 175 3 gusting 3 8.3
2015-Mar-04 05:47 162 4 gusting 3 8.3
2015-Mar-04 05:42 139 3 gusting 3 8.3
2015-Mar-04 05:37 139 2 gusting 3 8.3
2015-Mar-04 05:32 139 1 gusting 3 8.3
2015-Mar-04 05:27 139 1 gusting 3 8.3
2015-Mar-04 05:22 139 1 gusting 3 8.3
2015-Mar-04 05:17 139 1 gusting 3 8.3
2015-Mar-04 05:12 139 7.8
2015-Mar-04 05:07 139 0 gusting 5 7.8
2015-Mar-04 05:02 139 0 gusting 5 7.8
2015-Mar-04 04:57 139 1 gusting 6 7.8
2015-Mar-04 04:52 139 0 gusting 7 8.3
2015-Mar-04 04:47 139 1 gusting 7 8.3
2015-Mar-04 04:42 144 3 gusting 6 8.3
2015-Mar-04 04:37 140 3 gusting 6 8.3
2015-Mar-04 04:32 158 4 gusting 7 7.8
2015-Mar-04 04:27 148 6 gusting 7 7.8
2015-Mar-04 04:22 159 4 gusting 6 7.8
2015-Mar-04 04:17 165 5 gusting 6 7.8
2015-Mar-04 04:12 158 7 gusting 6 7.8
2015-Mar-04 04:07 162 3 gusting 6 7.8
2015-Mar-04 04:02 152 3 gusting 6 7.8
2015-Mar-04 03:57 171 4 gusting 5 7.8
2015-Mar-04 03:52 146 4 gusting 4 7.8
2015-Mar-04 03:47 157 2 gusting 4 7.8
2015-Mar-04 03:42 170 3 gusting 4 7.8
2015-Mar-04 03:37 178 0 gusting 4 7.8
2015-Mar-04 03:32 188 4 gusting 0 7.8
2015-Mar-04 03:27 190 1 gusting 0 7.8
2015-Mar-04 03:22 192 2 gusting 2 7.8
2015-Mar-04 03:17 196 7.8
2015-Mar-04 03:12 196 7.8
2015-Mar-04 03:07 196 7.8
2015-Mar-04 03:02 196 7.8
2015-Mar-04 02:57 196 0 8.3
2015-Mar-04 02:52 196 2 8.3
2015-Mar-04 02:47 268 8.3
2015-Mar-04 02:42 268 8.3
2015-Mar-04 02:37 268 8.3
2015-Mar-04 02:32 268 8.3
2015-Mar-04 02:27 268 8.3
2015-Mar-04 02:22 268 8.3
2015-Mar-04 02:17 268 8.9
2015-Mar-04 02:12 268 8.9
2015-Mar-04 02:07 268 8.9
2015-Mar-04 02:02 268 8.9
2015-Mar-04 01:57 268 1 gusting 1 8.9
2015-Mar-04 01:52 268 0 gusting 3 8.9
2015-Mar-04 01:47 268 1 gusting 3 8.9
2015-Mar-04 01:42 268 8.9
2015-Mar-04 01:37 268 9.4
2015-Mar-04 01:32 268 9.4
2015-Mar-04 01:27 268 1 gusting 3 9.4
2015-Mar-04 01:22 268 9.4
2015-Mar-04 01:17 268 9.4
2015-Mar-04 01:12 268 2 gusting 3 9.4
2015-Mar-04 01:07 261 2 gusting 3 9.4
2015-Mar-04 01:02 252 1 gusting 3 9.4
2015-Mar-04 00:57 252 0 10.0
2015-Mar-04 00:52 252 1 10.0
2015-Mar-04 00:47 194 1 10.0
2015-Mar-04 00:42 194 9.4
2015-Mar-04 00:37 194 9.4
2015-Mar-04 00:32 194 9.4
2015-Mar-04 00:27 194 10.0
2015-Mar-04 00:22 194 10.0
2015-Mar-04 00:17 194 10.0
2015-Mar-04 00:12 194 10.0
2015-Mar-04 00:07 194 10.0
2015-Mar-04 00:02 194 10.0
2015-Mar-03 23:57 194 10.0
2015-Mar-03 23:52 194 1 gusting 1 10.0
2015-Mar-03 23:47 194 10.0
2015-Mar-03 23:42 194 10.0
2015-Mar-03 23:37 194 10.0
2015-Mar-03 23:32 194 10.0
2015-Mar-03 23:27 194 10.6
2015-Mar-03 23:22 194 10.6
2015-Mar-03 23:17 194 10.6
2015-Mar-03 23:12 194 10.6
2015-Mar-03 23:07 194 10.6
2015-Mar-03 23:02 194 10.6
2015-Mar-03 22:57 194 10.6
2015-Mar-03 22:52 194 10.6
2015-Mar-03 22:47 194 10.6
2015-Mar-03 22:42 194 10.6
2015-Mar-03 22:37 194 10.6
2015-Mar-03 22:32 194 10.6
2015-Mar-03 22:27 194 10.6
2015-Mar-03 22:22 194 10.6
2015-Mar-03 22:17 194 0 gusting 2 10.6
2015-Mar-03 22:12 194 1 gusting 3 10.6
2015-Mar-03 22:07 198 1 gusting 3 10.6
2015-Mar-03 22:02 198 1 gusting 3 10.6
2015-Mar-03 21:57 198 0 gusting 1 10.6
2015-Mar-03 21:52 198 1 gusting 1 10.6
2015-Mar-03 21:47 198 10.6
2015-Mar-03 21:42 198 0 gusting 2 10.6
2015-Mar-03 21:37 198 10.6
2015-Mar-03 21:32 198 10.6
2015-Mar-03 21:27 198 0 gusting 2 10.6
2015-Mar-03 21:22 198 1 gusting 1 10.6
2015-Mar-03 21:17 198 0 gusting 1 10.6
2015-Mar-03 21:12 198 0 gusting 1 10.6
2015-Mar-03 21:07 198 1 gusting 1 10.6
2015-Mar-03 21:02 198 1 gusting 1 10.6
2015-Mar-03 20:57 198 10.6
2015-Mar-03 20:52 198 10.6
2015-Mar-03 20:47 198 10.6
2015-Mar-03 20:42 198 10.0
2015-Mar-03 20:37 198 10.6
2015-Mar-03 20:32 198 10.6
2015-Mar-03 20:27 198 10.6
2015-Mar-03 20:22 198 10.6
2015-Mar-03 20:17 198 10.6
2015-Mar-03 20:12 198 10.6
2015-Mar-03 20:07 198 11.1
2015-Mar-03 20:02 198 11.1
2015-Mar-03 19:57 198 11.1
2015-Mar-03 19:52 198 11.1
2015-Mar-03 19:47 198 11.7
2015-Mar-03 19:42 198 11.1
2015-Mar-03 19:37 198 11.1
2015-Mar-03 19:32 198 0 11.1
2015-Mar-03 19:27 198 11.1
2015-Mar-03 19:22 198 11.7
2015-Mar-03 19:17 198 11.7
2015-Mar-03 19:12 198 11.7
2015-Mar-03 19:07 198 11.7
2015-Mar-03 19:02 198 11.7
2015-Mar-03 18:57 198 11.7
2015-Mar-03 18:52 198 12.2
2015-Mar-03 18:47 198 12.2
2015-Mar-03 18:42 198 12.2
2015-Mar-03 18:37 198 12.2
2015-Mar-03 18:32 198 12.2
2015-Mar-03 18:27 198 12.2
2015-Mar-03 18:22 198 12.2
2015-Mar-03 18:17 198 12.8
2015-Mar-03 18:12 198 12.8
2015-Mar-03 18:07 198 12.8
2015-Mar-03 18:02 198 12.8
2015-Mar-03 17:57 198 12.8
2015-Mar-03 17:52 198 12.8
2015-Mar-03 17:47 198 13.3
2015-Mar-03 17:42 198 13.3
2015-Mar-03 17:37 232 1 gusting 3 13.3
2015-Mar-03 17:32 188 1 gusting 5 13.3
2015-Mar-03 17:27 190 1 gusting 5 13.3
2015-Mar-03 17:22 191 0 gusting 5 13.3
2015-Mar-03 17:17 202 13.3
2015-Mar-03 17:12 211 1 gusting 6 13.9
2015-Mar-03 17:07 211 13.9
2015-Mar-03 17:02 221 2 gusting 6 13.9
2015-Mar-03 16:57 197 2 gusting 5 13.9
2015-Mar-03 16:52 198 1 gusting 5 13.9
2015-Mar-03 16:47 205 0 gusting 5 13.9
2015-Mar-03 16:42 198 2 gusting 5 14.4
2015-Mar-03 16:37 180 1 gusting 5 14.4
2015-Mar-03 16:32 202 2 gusting 6 14.4
2015-Mar-03 16:27 198 3 gusting 6 15.0
2015-Mar-03 16:22 200 1 gusting 6 15.0
2015-Mar-03 16:17 221 0 gusting 6 15.0
2015-Mar-03 16:12 205 0 gusting 6 15.0
2015-Mar-03 16:07 212 0 gusting 6 15.6
2015-Mar-03 16:02 217 15.6
2015-Mar-03 15:57 213 1 gusting 5 15.6
2015-Mar-03 15:52 232 15.6
2015-Mar-03 15:47 242 4 gusting 6 15.6
2015-Mar-03 15:42 209 3 gusting 9 15.6
2015-Mar-03 15:37 195 2 gusting 9 15.6
2015-Mar-03 15:32 221 4 gusting 7 15.6
2015-Mar-03 15:27 188 2 gusting 7 15.6
2015-Mar-03 15:22 178 2 gusting 6 15.6
2015-Mar-03 15:17 165 6 gusting 6 16.1
2015-Mar-03 15:12 198 2 gusting 6 16.1
2015-Mar-03 15:07 222 3 gusting 6 16.1
2015-Mar-03 15:02 237 1 gusting 6 16.1
2015-Mar-03 14:57 153 6 gusting 6 16.7
2015-Mar-03 14:52 237 2 gusting 6 16.7
2015-Mar-03 14:47 196 3 gusting 6 17.2
2015-Mar-03 14:42 224 1 gusting 7 17.2
2015-Mar-03 14:37 234 2 gusting 7 16.7
2015-Mar-03 14:32 236 3 gusting 8 16.7
2015-Mar-03 14:27 261 1 gusting 8 16.7
2015-Mar-03 14:22 205 17.2
2015-Mar-03 14:17 266 3 gusting 9 17.2
2015-Mar-03 14:12 221 3 gusting 10 17.2
2015-Mar-03 14:07 236 3 gusting 10 17.2
2015-Mar-03 14:02 253 8 gusting 10 17.2
2015-Mar-03 13:58 260 3 gusting 7 17.2
2015-Mar-03 13:53 242 0 gusting 7 17.2
2015-Mar-03 13:48 220 2 gusting 9 17.2
2015-Mar-03 13:43 220 2 gusting 9 17.2
2015-Mar-03 13:38 253 2 gusting 7 17.2
2015-Mar-03 13:33 261 0 gusting 7 17.2
2015-Mar-03 13:28 267 5 gusting 8 17.2
2015-Mar-03 13:23 252 1 gusting 8 17.2
2015-Mar-03 13:18 268 2 gusting 8 17.2
2015-Mar-03 13:13 242 3 gusting 7 17.8
2015-Mar-03 13:08 211 5 gusting 7 17.8
2015-Mar-03 13:03 259 1 gusting 7 17.2
2015-Mar-03 12:58 226 2 gusting 8 17.8
2015-Mar-03 12:53 228 2 gusting 8 17.8
2015-Mar-03 12:48 239 1 gusting 7 17.8
2015-Mar-03 12:43 261 3 gusting 10 17.8
2015-Mar-03 12:38 224 6 gusting 10 17.8
2015-Mar-03 12:33 215 3 gusting 7 17.2
2015-Mar-03 12:28 266 6 gusting 7 17.2
2015-Mar-03 12:23 252 4 gusting 6 17.2
2015-Mar-03 12:18 257 6 gusting 6 17.2
2015-Mar-03 12:13 262 2 gusting 7 17.2
2015-Mar-03 12:08 209 4 gusting 7 17.2
2015-Mar-03 12:03 266 2 gusting 7 17.2
2015-Mar-03 11:58 298 0 gusting 8 16.7
2015-Mar-03 11:53 332 4 gusting 8 16.7
2015-Mar-03 11:48 267 4 gusting 9 16.7
2015-Mar-03 11:43 262 3 gusting 9 16.7
2015-Mar-03 11:38 265 5 gusting 4 16.7
2015-Mar-03 11:33 303 1 gusting 7 17.2
2015-Mar-03 11:28 311 3 gusting 7 17.2
2015-Mar-03 11:23 257 2 gusting 6 17.2
2015-Mar-03 11:18 269 2 gusting 6 16.7
2015-Mar-03 11:13 291 1 gusting 6 16.7
2015-Mar-03 11:08 281 1 gusting 3 16.7
2015-Mar-03 11:03 323 16.1
2015-Mar-03 10:58 323 0 gusting 4 16.1
2015-Mar-03 10:53 323 16.1
2015-Mar-03 10:48 323 2 gusting 3 16.1
2015-Mar-03 10:43 325 3 gusting 5 16.1
2015-Mar-03 10:38 279 1 gusting 5 16.1
2015-Mar-03 10:33 282 0 gusting 3 16.1
2015-Mar-03 10:28 344 15.6
2015-Mar-03 10:23 344 1 gusting 2 15.6
2015-Mar-03 10:18 147 15.6
2015-Mar-03 10:13 147 0 gusting 2 15.6
2015-Mar-03 10:08 147 2 gusting 2 15.6
2015-Mar-03 10:03 147 15.6
2015-Mar-03 09:58 147 1 gusting 2 15.6
2015-Mar-03 09:53 147 15.0
2015-Mar-03 09:48 147 1 gusting 2 15.0
2015-Mar-03 09:43 147 15.6
2015-Mar-03 09:39 147 15.0
2015-Mar-03 09:34 147 15.0
2015-Mar-03 09:29 147 15.0
2015-Mar-03 09:24 147 14.4
2015-Mar-03 09:19 152 14.4
2015-Mar-03 09:14 152 14.4
2015-Mar-03 09:09 152 13.9
2015-Mar-03 09:04 152 13.9
2015-Mar-03 08:59 152 13.9
2015-Mar-03 08:54 152 13.3
2015-Mar-03 08:49 152 13.3
2015-Mar-03 08:44 152 2 gusting 2 13.3
2015-Mar-03 08:39 152 13.3
2015-Mar-03 08:34 152 13.3
2015-Mar-03 08:27 152 12.8
2015-Mar-03 08:22 152 12.8
2015-Mar-03 08:17 152 12.8
2015-Mar-03 08:12 152 12.2
2015-Mar-03 08:07 152 12.2
2015-Mar-03 08:02 152 11.7
2015-Mar-03 07:57 152 11.7
2015-Mar-03 07:52 152 11.1
2015-Mar-03 07:47 152 11.1
2015-Mar-03 07:42 152 11.1
2015-Mar-03 07:37 152 10.6
2015-Mar-03 07:32 152 10.6
2015-Mar-03 07:27 152 1 gusting 2 10.0
2015-Mar-03 07:22 152 1 10.0
2015-Mar-03 07:17 152 1 10.0
2015-Mar-03 07:12 152 2 gusting 3 10.0
2015-Mar-03 07:07 152 0 gusting 3 10.0
2015-Mar-03 07:02 152 10.0
2015-Mar-03 06:57 152 10.0
2015-Mar-03 06:52 152 9.4
2015-Mar-03 06:47 152 1 gusting 2 9.4
2015-Mar-03 06:42 152 1 gusting 2 9.4
2015-Mar-03 06:37 152 2 gusting 2 9.4
2015-Mar-03 06:32 152 10.0
2015-Mar-03 06:27 152 10.0
2015-Mar-03 06:22 152 10.0
2015-Mar-03 06:17 152 10.0
2015-Mar-03 06:12 152 10.0
2015-Mar-03 06:07 152 10.6
2015-Mar-03 06:02 152 10.6
2015-Mar-03 05:57 152 10.6
2015-Mar-03 05:52 152 10.6
2015-Mar-03 05:47 152 10.6
2015-Mar-03 05:42 152 10.0
2015-Mar-03 05:37 152 10.0
2015-Mar-03 05:32 152 10.0
2015-Mar-03 05:27 152 10.0
2015-Mar-03 05:22 152 10.0
2015-Mar-03 05:17 152 10.0
2015-Mar-03 05:12 152 10.0
2015-Mar-03 05:07 152 1 gusting 3 10.0
2015-Mar-03 05:02 152 0 gusting 3 10.0
2015-Mar-03 04:57 152 1 gusting 3 10.6
2015-Mar-03 04:52 152 10.6
2015-Mar-03 04:47 156 2 gusting 5 10.6
2015-Mar-03 04:42 159 0 gusting 2 10.6
2015-Mar-03 04:37 163 1 gusting 2 10.6
2015-Mar-03 04:32 163 4 gusting 2 10.6
2015-Mar-03 04:27 202 4 gusting 2 10.6
2015-Mar-03 04:22 244 10.6
2015-Mar-03 04:17 244 1 gusting 3 10.6
2015-Mar-03 04:12 244 0 gusting 2 10.6
2015-Mar-03 04:07 244 10.6
2015-Mar-03 04:02 244 1 gusting 2 10.6
2015-Mar-03 03:57 244 0 gusting 1 10.6
2015-Mar-03 03:52 244 10.6
2015-Mar-03 03:47 244 10.6
2015-Mar-03 03:42 244 0 10.6
2015-Mar-03 03:37 244 10.6
2015-Mar-03 03:32 244 11.1
2015-Mar-03 03:27 244 11.1
2015-Mar-03 03:22 244 11.1
2015-Mar-03 03:17 244 11.1
2015-Mar-03 03:12 244 11.1
2015-Mar-03 03:07 244 11.1
2015-Mar-03 03:02 244 11.1
2015-Mar-03 02:57 244 11.1
2015-Mar-03 02:52 244 11.1
2015-Mar-03 02:47 244 11.1
2015-Mar-03 02:42 244 11.1
2015-Mar-03 02:37 244 11.1
2015-Mar-03 02:32 244 11.1
2015-Mar-03 02:27 244 11.1
2015-Mar-03 02:22 244 11.1
2015-Mar-03 02:17 244 11.1
2015-Mar-03 02:12 244 11.1
2015-Mar-03 02:07 244 11.1
2015-Mar-03 02:02 244 11.1
2015-Mar-03 01:57 244 11.7
2015-Mar-03 01:52 244 11.7
2015-Mar-03 01:47 244 11.7
2015-Mar-03 01:42 244 11.7
2015-Mar-03 01:37 244 11.7
2015-Mar-03 01:32 244 12.2
2015-Mar-03 01:27 244 12.2
2015-Mar-03 01:22 244 12.2
2015-Mar-03 01:17 244 12.2
2015-Mar-03 01:12 244 12.2
2015-Mar-03 01:07 244 12.2
2015-Mar-03 01:02 244 12.8
2015-Mar-03 00:57 244 12.8
2015-Mar-03 00:52 244 12.8
2015-Mar-03 00:47 244 12.8
2015-Mar-03 00:42 244 12.8
2015-Mar-03 00:37 244 12.8
2015-Mar-03 00:32 244 12.8
2015-Mar-03 00:27 244 0 gusting 4 12.8
2015-Mar-03 00:22 244 12.8
2015-Mar-03 00:17 244 1 gusting 2 12.8
2015-Mar-03 00:12 244 2 gusting 6 12.8
2015-Mar-03 00:07 255 12.8
2015-Mar-03 00:02 255 0 gusting 6 13.3
2015-Mar-02 23:57 255 1 gusting 6 13.3
2015-Mar-02 23:52 256 2 gusting 4 12.8
2015-Mar-02 23:47 250 12.8
2015-Mar-02 23:42 253 1 gusting 1 12.8
2015-Mar-02 23:37 221 1 gusting 1 12.8
2015-Mar-02 23:32 201 1 gusting 3 12.2
2015-Mar-02 23:27 186 0 gusting 3 12.2
2015-Mar-02 23:22 186 12.2
2015-Mar-02 23:17 186 12.2
2015-Mar-02 23:12 186 12.2
2015-Mar-02 23:07 186 12.2
2015-Mar-02 23:02 186 1 gusting 4 12.2
2015-Mar-02 22:57 186 12.2
2015-Mar-02 22:52 186 12.2
2015-Mar-02 22:47 186 12.2
2015-Mar-02 22:42 220 0 12.2
2015-Mar-02 22:37 223 12.2
2015-Mar-02 22:32 225 1 gusting 1 12.2
2015-Mar-02 22:27 229 12.2
2015-Mar-02 22:22 229 12.2
2015-Mar-02 22:17 229 12.2
2015-Mar-02 22:12 229 12.2
2015-Mar-02 22:07 229 12.2
2015-Mar-02 22:02 229 12.2
2015-Mar-02 21:57 229 12.2
2015-Mar-02 21:52 229 2 gusting 0 12.2
2015-Mar-02 21:47 229 12.2
2015-Mar-02 21:42 229 12.2
2015-Mar-02 21:37 254 0 12.2
2015-Mar-02 21:32 254 12.8
2015-Mar-02 21:27 254 12.2
2015-Mar-02 21:22 254 12.8
2015-Mar-02 21:17 254 12.8
2015-Mar-02 21:12 254 12.8
2015-Mar-02 21:07 254 12.8
2015-Mar-02 21:02 254 12.8
2015-Mar-02 20:57 254 12.8
2015-Mar-02 20:52 254 12.8
2015-Mar-02 20:47 254 12.8
2015-Mar-02 20:42 254 12.8
2015-Mar-02 20:37 254 12.8
2015-Mar-02 20:32 257 13.3
2015-Mar-02 20:27 258 13.3
2015-Mar-02 20:22 258 13.3
2015-Mar-02 20:17 258 13.3
2015-Mar-02 20:12 258 13.3
2015-Mar-02 20:05 258 13.3
2015-Mar-02 20:00 258 13.3
2015-Mar-02 19:55 261 0 gusting 9 13.9
2015-Mar-02 19:50 262 4 gusting 7 13.9
2015-Mar-02 19:45 262 6 gusting 7 13.9
2015-Mar-02 19:40 251 3 gusting 7 13.9
2015-Mar-02 19:35 256 3 gusting 7 13.9
2015-Mar-02 19:30 265 3 gusting 8 13.9
2015-Mar-02 19:25 258 2 gusting 8 14.4
2015-Mar-02 19:20 246 2 gusting 13 14.4
2015-Mar-02 19:14 254 2 gusting 13 14.4
2015-Mar-02 19:09 283 6 gusting 11 14.4
2015-Mar-02 19:04 246 6 gusting 11 14.4
2015-Mar-02 18:59 268 3 gusting 6 14.4
2015-Mar-02 18:54 252 6 gusting 6 14.4
2015-Mar-02 18:49 264 5 gusting 6 14.4
2015-Mar-02 18:44 253 5 gusting 6 14.4
2015-Mar-02 18:39 260 1 gusting 6 14.4
2015-Mar-02 18:34 215 14.4
2015-Mar-02 18:29 218 5 gusting 6 14.4
2015-Mar-02 18:24 261 1 gusting 6 14.4
2015-Mar-02 18:19 223 3 gusting 8 14.4
2015-Mar-02 18:14 238 0 gusting 8 14.4
2015-Mar-02 18:09 257 2 gusting 7 14.4
2015-Mar-02 18:04 245 1 gusting 7 14.4
2015-Mar-02 17:59 252 1 gusting 12 14.4
2015-Mar-02 17:54 225 1 gusting 12 14.4
2015-Mar-02 17:49 252 4 gusting 7 14.4
2015-Mar-02 17:44 279 6 gusting 7 14.4
2015-Mar-02 17:39 245 4 gusting 10 14.4
2015-Mar-02 17:34 252 2 gusting 10 15.0
2015-Mar-02 17:29 187 0 gusting 13 15.0
2015-Mar-02 17:24 252 15.0
2015-Mar-02 17:19 250 2 gusting 13 15.0
2015-Mar-02 17:14 256 2 gusting 13 15.0
2015-Mar-02 17:09 281 5 gusting 13 15.0
2015-Mar-02 17:04 250 9 gusting 13 15.0
2015-Mar-02 16:59 258 6 gusting 13 15.0
2015-Mar-02 16:54 225 3 gusting 13 15.0
2015-Mar-02 16:49 279 2 gusting 12 15.0
2015-Mar-02 16:44 252 2 gusting 12 15.0
2015-Mar-02 16:39 267 6 gusting 11 15.0
2015-Mar-02 16:34 273 8 gusting 11 15.0
2015-Mar-02 16:29 265 4 gusting 14 15.0
2015-Mar-02 16:24 264 10 gusting 14 15.0
2015-Mar-02 16:19 246 0 gusting 12 15.0
2015-Mar-02 16:14 225 1 gusting 12 15.0
2015-Mar-02 16:09 219 1 gusting 12 15.0
2015-Mar-02 16:04 271 2 gusting 12 15.0
2015-Mar-02 15:59 253 3 gusting 11 15.0
2015-Mar-02 15:54 221 3 gusting 11 15.0
2015-Mar-02 15:49 252 3 gusting 13 15.0
2015-Mar-02 15:44 188 1 gusting 13 15.0
2015-Mar-02 15:39 241 1 gusting 17 15.0
2015-Mar-02 15:34 260 4 gusting 17 15.0
2015-Mar-02 15:29 244 3 gusting 13 15.0
2015-Mar-02 15:24 269 13 gusting 13 15.0
2015-Mar-02 15:19 250 6 gusting 14 15.0
2015-Mar-02 15:14 270 7 gusting 14 15.0
2015-Mar-02 15:09 240 6 gusting 13 15.0
2015-Mar-02 15:04 266 3 gusting 13 15.0
2015-Mar-02 14:59 252 7 gusting 15 15.0
2015-Mar-02 14:54 266 5 gusting 15 15.0
2015-Mar-02 14:49 236 3 gusting 15 15.0
2015-Mar-02 14:44 277 1 gusting 15 15.0
2015-Mar-02 14:39 251 6 gusting 13 15.0
2015-Mar-02 14:34 252 11 gusting 13 15.0
2015-Mar-02 14:29 266 13 gusting 14 15.0
2015-Mar-02 14:24 257 6 gusting 14 15.0
2015-Mar-02 14:19 271 2 gusting 15 15.0
2015-Mar-02 14:14 265 10 gusting 15 15.0
2015-Mar-02 14:09 265 8 gusting 13 15.0
2015-Mar-02 14:04 269 5 gusting 13 15.0
2015-Mar-02 13:59 263 7 gusting 13 15.0
2015-Mar-02 13:54 245 2 gusting 13 15.0
2015-Mar-02 13:49 223 5 gusting 19 15.6
2015-Mar-02 13:44 231 4 gusting 19 15.6
2015-Mar-02 13:39 224 3 gusting 18 15.6
2015-Mar-02 13:34 253 4 gusting 18 15.6
2015-Mar-02 13:29 250 6 gusting 15 15.6
2015-Mar-02 13:24 246 3 gusting 15 15.6
2015-Mar-02 13:19 244 6 gusting 13 15.6
2015-Mar-02 13:14 259 7 gusting 13 15.6
2015-Mar-02 13:09 234 5 gusting 20 15.6
2015-Mar-02 13:04 249 5 gusting 20 15.6
2015-Mar-02 12:59 261 4 gusting 16 15.6
2015-Mar-02 12:54 274 7 gusting 16 15.6
2015-Mar-02 12:49 275 14 gusting 17 15.0
2015-Mar-02 12:44 234 2 gusting 17 15.0
2015-Mar-02 12:39 223 4 gusting 12 15.0
2015-Mar-02 12:34 188 6 gusting 12 14.4
2015-Mar-02 12:29 262 4 gusting 7 14.4
2015-Mar-02 12:24 256 3 gusting 7 13.9
2015-Mar-02 12:19 279 6 gusting 11 13.9
2015-Mar-02 12:14 251 4 gusting 11 13.9
2015-Mar-02 12:09 258 3 gusting 4 13.3
2015-Mar-02 12:04 236 6 gusting 4 13.3